Regional Weather Roundup
Issued by NWS Newport/Morehead, NC

Current Version | Previous Version | Graphics & Text | Print | Product List | Glossary Off
Versions: 1 2 3 4 5 6 7 8 9 10 11 12 13 14 15 16 17 18 19 20 21 22 23 24 25 26 27 28 29 30 31 32 33 34 35 36 37 38 39 40 41 42 43 44 45 46 47 48 49 50
000 ASUS42 KMHX 221726 RWRMHX WEATHER ROUNDUP FOR EASTERN NORTH CAROLINA NATIONAL WEATHER SERVICE NEWPORT/MOREHEAD CITY NC 100 PM EDT TUE AUG 22 2017 NOTE: "FAIR" INDICATES FEW OR NO CLOUDS BELOW 12,000 FEET WITH NO SIGNIFICANT WEATHER AND/OR OBSTRUCTIONS TO VISIBILITY NCZ015>017-031-032-045>047-102-103-221800- NORTH COAST CITY SKY/WX TMP DP RH WIND PRES REMARKS EDENTON SUNNY 89 76 65 CALM 30.07F HX 100 ELIZABETH CITY SUNNY 88 77 69 S10 30.06F HX 100 KITTY HAWK PTSUNNY 85 74 70 CALM 30.06F MANTEO RAIN 84 76 78 S9 30.08F $$ NCZ045>047-081-094-103-104-221800- CENTRAL COAST CITY SKY/WX TMP DP RH WIND PRES REMARKS FRISCO SUNNY 87 77 72 VRB7 30.10F $$ NCZ095-097-098-100-101-221800- SOUTHERN COAST CITY SKY/WX TMP DP RH WIND PRES REMARKS BEAUFORT MOSUNNY 86 77 74 S9 30.11S CEDAR ISLAND NOT AVBL JACKSONVILLE TSTM 77 76 96 S5 30.09F FOG PINEY ISLAND LGT RAIN N/A N/A N/A W7 30.09F WILMINGTON PTSUNNY 87 76 69 SE8 30.09F $$ NCZ011>013-027>030-043-044-078>080-089-090>093-098-221800- COASTAL PLAIN CITY SKY/WX TMP DP RH WIND PRES REMARKS AHOSKIE N/A 85 74 69 S7 30.06F CLINTON MOSUNNY 85 80 84 CALM 30.09F HX 100 ELIZABETHTOWN NOT AVBL GOLDSBORO PTSUNNY 88 77 70 SW7 30.06F HX 100 GREENVILLE MOSUNNY 90 75 62 W6 30.08F HX 100 HAVELOCK LGT RAIN 75 73 93 NW9 30.12S VSB 1 KENANSVILLE LGT RAIN 79 77 94 CALM 30.09F KINSTON MOSUNNY 90 75 62 CALM 30.08F HX 100 NEW BERN PTSUNNY 81 79 94 E5 30.10F RICHLANDS CLOUDY 81 76 84 SE5 30.10S ROCKY MOUNT MOSUNNY 88 75 65 SW6 30.07F WASHINGTON SUNNY 89 75 63 S3 30.07F WHITEVILLE PTSUNNY 88 73 61 SW3 30.08F $$ AMZ130-135-150-152-154-156-158-170-250-252-270-ANZ085-086-088-633-658-670-221800- MARINE OBSERVATIONS STATION/POSITION TIME TEMP WIND PRES WAVE SWELL AIR SEA DIR/SP/G HT/PER HT/PER (UTC) (F) (DEG/KT/KT) (MB) (FT/S) (FT/S) CHESAPEAKE LIGHT NOT AVBL 64 E VA BEACH 1650 80 80 200/ 10/ 12 1018.9 3/11 2/11 DUCK 1700 82 76 130/ 9/ 11 1017.9 2 E DUCK 1700 82 N/A 2/12 2/12 OREGON INLET 1700 84 80 170/ 10/ 13 1018.4 13E OREGON INLT 1648 81 N/A 3/ 9 3/ 9 HATTERAS CG 1700 85 83 190/ 5/ 10 1019.1 DIAMOND BUOY 1650 83 87 200/ 10/ 12 1019.2 3/10 3/10 CAPE LOOKOUT 1700 85 200/ 7/ 8 1019.0 BEAUFORT LAB 1700 83 81 200/ 7/ 10 1019.0 30 SE NEW RVR IN 1708 82 84 210/ 8/ 10 1019.5 30 SE NEW RVR IN 1713 84 N/A 5/11 3/11 27 SE WRIGHTSVLE 1708 83 84 190/ 4/ 6 1019.4 5 SE WRIGHTSVLE 1708 82 83 160/ 8/ 12 1019.0 225 S CAPE HAT 1650 82 85 130/ 8/ 10 1020.2 5/10 5/10 41 SE CHARLESTON 1710 84 85 210/ 6/ 8 1019.1 $$

USA.gov is the U.S. government's official web portal to all federal, state and local government web resources and services.